Danville, ME

6:10 PM EDT on August 29, 2016 (GMT -0400)
Auburn-Lewiston Municipal

Weather History for KLEW - January, 2013

Change the Weather History Date:

Saturday, January 19, 2013

  Actual Average Record
Temperature  
Mean Temperature 20 °F -  
Max Temperature 33 °F 23 °F 46 °F (2015)
Min Temperature 8 °F 6 °F -13 °F (2000)
Degree Days  
Heating Degree Days 44    
Moisture  
Dew Point 13 °F    
Average Humidity 61    
Maximum Humidity 74    
Minimum Humidity 48    
Precipitation  
Precipitation 0.00 in - - ()
Sea Level Pressure  
Sea Level Pressure 30.05 in    
Wind  
Wind Speed 4 mph (SSW)    
Max Wind Speed 10 mph    
Max Gust Speed -    
Visibility 10 miles    
Events      
Averages and records for this station are not official NWS values.
T = Trace of Precipitation, MM = Missing Value Source: NWS Daily Summary

Daily Weather History Graph

Daily Weather History Graph

Search for Another Location

Airport or City:

Trip Planner

Search our weather history database for the weather conditions in past years. The results will help you decide how hot, cold, wet, or windy it might be!

Date:

Astronomy

Jan. 19, 2013 Rise Set
Actual Time 7:10 AM EST 4:34 PM EST
Civil Twilight 6:38 AM EST 5:05 PM EST
Nautical Twilight 6:03 AM EST 5:41 PM EST
Astronomical Twilight 5:28 AM EST 6:15 PM EST
Moon 11:01 AM EST (1/19) 12:38 AM EST (1/19)
Length of Visible Light 10h 27m
Length of Day
9h 23m
First Quarter, 57% of the Moon is Illuminated
Jan 19
First Quarter
Jan 26
Full
Feb 3
Last Quarter
Feb 10
New
Feb 17
First Quarter

Hourly Weather History & Observations

Time (EST) Temp. Windchill Dew Point Humidity Pressure Visibility Wind Dir Wind Speed Gust Speed Precip Events Conditions
12:15 AM 8.6 °F 0.1 °F -2.2 °F 62% 30.30 in 10.0 mi South 4.6 mph - N/A   Mostly Cloudy
12:35 AM 10.4 °F 0.8 °F -0.4 °F 62% 30.30 in 10.0 mi South 5.8 mph - N/A   Mostly Cloudy
12:55 AM 10.4 °F 2.2 °F -0.4 °F 62% 30.30 in 10.0 mi South 4.6 mph - N/A   Mostly Cloudy
1:15 AM 10.4 °F 2.2 °F -0.4 °F 62% 30.30 in 10.0 mi South 4.6 mph - N/A   Overcast
1:35 AM 12.2 °F - -0.4 °F 57% 30.30 in 10.0 mi Calm Calm - N/A   Overcast
1:55 AM 12.2 °F 6.1 °F 1.4 °F 62% 30.29 in 10.0 mi South 3.5 mph - N/A   Overcast
2:15 AM 12.2 °F 4.3 °F 1.4 °F 62% 30.28 in 10.0 mi South 4.6 mph - N/A   Overcast
2:35 AM 14.0 °F 6.5 °F 1.4 °F 57% 30.26 in 10.0 mi South 4.6 mph - N/A   Overcast
2:55 AM 15.8 °F 8.6 °F 3.2 °F 58% 30.25 in 10.0 mi South 4.6 mph - N/A   Overcast
3:15 AM 15.8 °F 7.2 °F 1.4 °F 53% 30.24 in 10.0 mi South 5.8 mph - N/A   Overcast
3:35 AM 15.8 °F 6.1 °F 3.2 °F 58% 30.22 in 10.0 mi South 6.9 mph - N/A   Overcast
3:55 AM 15.8 °F 10.2 °F 3.2 °F 58% 30.20 in 10.0 mi SSW 3.5 mph - N/A   Overcast
4:15 AM 17.6 °F 10.7 °F 3.2 °F 53% 30.20 in 10.0 mi South 4.6 mph - N/A   Mostly Cloudy
4:35 AM 17.6 °F 6.4 °F 3.2 °F 53% 30.18 in 10.0 mi South 9.2 mph - N/A   Partly Cloudy
4:55 AM 17.6 °F 9.3 °F 3.2 °F 53% 30.17 in 10.0 mi SSW 5.8 mph - N/A   Scattered Clouds
5:15 AM 17.6 °F 7.3 °F 6.8 °F 63% 30.16 in 10.0 mi SSW 8.1 mph - N/A   Overcast
5:35 AM 19.4 °F 9.5 °F 5.0 °F 54% 30.15 in 10.0 mi SSW 8.1 mph - N/A   Overcast
5:55 AM 19.4 °F 8.6 °F 6.8 °F 58% 30.15 in 9.0 mi SSW 9.2 mph - N/A   Overcast
6:15 AM 19.4 °F 7.9 °F 10.4 °F 68% 30.15 in 2.5 mi SSW 10.4 mph - N/A   Overcast
6:35 AM 19.4 °F 10.4 °F 12.2 °F 74% 30.14 in 2.5 mi SSW 6.9 mph - N/A   Overcast
6:55 AM 19.4 °F 12.8 °F 12.2 °F 74% 30.14 in 10.0 mi SSW 4.6 mph - N/A   Mostly Cloudy
7:15 AM 19.4 °F 12.8 °F 12.2 °F 74% 30.13 in 10.0 mi South 4.6 mph - N/A   Overcast
7:35 AM 19.4 °F - 12.2 °F 74% 30.12 in 10.0 mi Calm Calm - N/A   Overcast
7:55 AM 19.4 °F 14.3 °F 12.2 °F 74% 30.12 in 10.0 mi South 3.5 mph - N/A   Overcast
8:15 AM 21.2 °F 14.9 °F 10.4 °F 63% 30.11 in 10.0 mi South 4.6 mph - N/A   Overcast
8:35 AM 21.2 °F 12.6 °F 10.4 °F 63% 30.11 in 10.0 mi South 6.9 mph - N/A   Overcast
8:55 AM 23.0 °F 13.9 °F 10.4 °F 59% 30.10 in 10.0 mi South 8.1 mph - N/A   Overcast
9:15 AM 23.0 °F 13.9 °F 12.2 °F 63% 30.10 in 10.0 mi South 8.1 mph - N/A   Mostly Cloudy
9:35 AM 24.8 °F 14.6 °F 12.2 °F 59% 30.09 in 10.0 mi SSW 10.4 mph - N/A   Mostly Cloudy
9:55 AM 24.8 °F 15.3 °F 12.2 °F 59% 30.09 in 10.0 mi SSW 9.2 mph - N/A   Partly Cloudy
10:15 AM 26.6 °F 16.8 °F 12.2 °F 55% 30.09 in 10.0 mi South 10.4 mph - N/A   Clear
10:35 AM 26.6 °F 18.2 °F 12.2 °F 55% 30.08 in 10.0 mi SSW 8.1 mph - N/A   Clear
10:55 AM 26.6 °F 16.8 °F 12.2 °F 55% 30.06 in 10.0 mi SSW 10.4 mph - N/A   Clear
11:15 AM 28.4 °F 21.2 °F 12.2 °F 51% 30.04 in 10.0 mi South 6.9 mph - N/A   Partly Cloudy
11:35 AM 28.4 °F 21.2 °F 12.2 °F 51% - 10.0 mi SSW 6.9 mph - N/A   Mostly Cloudy
11:55 AM 28.4 °F 21.2 °F 14.0 °F 55% 30.01 in 10.0 mi SSW 6.9 mph - N/A   Overcast
12:15 PM 30.2 °F 23.4 °F 15.8 °F 55% 29.99 in 10.0 mi South 6.9 mph - N/A   Scattered Clouds
12:55 PM 30.2 °F 24.3 °F 15.8 °F 55% 29.97 in 10.0 mi SSW 5.8 mph - N/A   Partly Cloudy
1:15 PM 32.0 °F 25.6 °F 15.8 °F 51% 29.96 in 10.0 mi SSW 6.9 mph - N/A   Scattered Clouds
1:35 PM 33.8 °F 30.8 °F 15.8 °F 48% 29.96 in 10.0 mi SW 3.5 mph - N/A   Scattered Clouds
1:55 PM 33.8 °F 30.8 °F 17.6 °F 52% 29.96 in 10.0 mi SW 3.5 mph - N/A   Partly Cloudy
2:15 PM 33.8 °F - 17.6 °F 52% 29.96 in 10.0 mi Calm Calm - N/A   Scattered Clouds
2:35 PM 33.8 °F - 15.8 °F 48% 29.96 in 10.0 mi Calm Calm - N/A   Partly Cloudy
2:55 PM 33.8 °F - 17.6 °F 52% 29.96 in 10.0 mi Calm Calm - N/A   Mostly Cloudy
3:15 PM 33.8 °F - 15.8 °F 48% 29.95 in 10.0 mi Calm Calm - N/A   Mostly Cloudy
3:35 PM 33.8 °F 30.8 °F 15.8 °F 48% 29.94 in 10.0 mi SE 3.5 mph - N/A   Overcast
3:55 PM 33.8 °F 27.7 °F 17.6 °F 52% 29.93 in 10.0 mi South 6.9 mph - N/A   Overcast
4:15 PM 33.8 °F - 17.6 °F 52% 29.93 in 10.0 mi Calm Calm - N/A   Overcast
4:35 PM 33.8 °F - 17.6 °F 52% 29.93 in 10.0 mi Calm Calm - N/A   Overcast
4:55 PM 33.8 °F 30.8 °F 17.6 °F 52% 29.93 in 10.0 mi South 3.5 mph - N/A   Overcast
5:15 PM 30.2 °F - 19.4 °F 64% 29.93 in 10.0 mi Calm Calm - N/A   Overcast
5:35 PM 32.0 °F 28.7 °F 17.6 °F 55% 29.94 in 10.0 mi NNE 3.5 mph - N/A   Overcast
5:55 PM 30.2 °F - 19.4 °F 64% 29.95 in 10.0 mi Calm Calm - N/A   Overcast
6:15 PM 30.2 °F - 19.4 °F 64% 29.94 in 10.0 mi Calm Calm - N/A   Overcast
6:35 PM 30.2 °F - 19.4 °F 64% 29.94 in 10.0 mi Calm Calm - N/A   Overcast
6:55 PM 28.4 °F - 19.4 °F 69% 29.94 in 10.0 mi Calm Calm - N/A   Overcast
7:35 PM 28.4 °F - 19.4 °F 69% 29.94 in 10.0 mi Calm Calm - N/A   Overcast
7:55 PM 28.4 °F - 21.2 °F 74% 29.94 in 10.0 mi Calm Calm - N/A   Overcast
8:15 PM 28.4 °F - 19.4 °F 69% 29.93 in 10.0 mi Calm Calm - N/A   Scattered Clouds
8:35 PM 28.4 °F - 21.2 °F 74% 29.94 in 10.0 mi Calm Calm - N/A   Clear
8:55 PM 28.4 °F - 21.2 °F 74% 29.94 in 10.0 mi Calm Calm - N/A   Mostly Cloudy
9:15 PM 28.4 °F - 21.2 °F 74% 29.93 in 10.0 mi Calm Calm - N/A   Overcast
9:35 PM 28.4 °F - 21.2 °F 74% 29.92 in 10.0 mi Calm Calm - N/A   Overcast
9:55 PM 28.4 °F - 21.2 °F 74% 29.91 in 10.0 mi Calm Calm - N/A   Overcast
10:15 PM 28.4 °F - 21.2 °F 74% 29.91 in 10.0 mi Calm Calm - N/A   Overcast
10:35 PM 28.4 °F - 21.2 °F 74% 29.89 in 10.0 mi Calm Calm - N/A   Overcast
10:55 PM 28.4 °F - 21.2 °F 74% 29.88 in 10.0 mi Calm Calm - N/A   Overcast
11:15 PM 28.4 °F - 19.4 °F 69% 29.86 in 10.0 mi Calm Calm - N/A   Overcast
11:35 PM 28.4 °F - 21.2 °F 74% 29.85 in 10.0 mi Calm Calm - N/A   Overcast
11:55 PM 28.4 °F - 21.2 °F 74% 29.84 in 10.0 mi Calm Calm - N/A   Overcast